Track RESURS DK-1 now! 10-day predictions RESURS DK-1 is classified as:
1 29228U 06021A 25015.62573413 .00003005 00000-0 19292-3 0 9990 2 29228 69.9326 235.9652 0003049 358.2443 1.8711 15.09609755 24367